Location: Newark
(51.3318°N, 0.0053°E)
Time: 08:52:30
(UTC+00:00)

SO-50 - Visible Passes

Search period start: 04 July 2022 00:00
Search period end: 14 July 2022 00:00
Orbit: 586 x 697 km, 64.6° (Epoch: 03 July)

Date Brightness Start Highest point End Pass type
(mag) Time Alt. Az. Time Alt. Az. Time Alt. Az.
04 Jul ? 01:33:31 10° W 01:37:54 34° NNW 01:42:24 10° NNE visible
04 Jul ? 22:40:10 19° SE 22:41:40 22° ESE 22:45:23 10° ENE visible
05 Jul ? 00:17:43 15° SW 00:21:38 72° NW 00:26:32 10° NE visible
05 Jul ? 01:58:54 10° WNW 02:02:52 24° NNW 02:06:54 10° NNE visible
05 Jul ? 23:03:16 23° S 23:05:48 44° ESE 23:10:26 10° NE visible
06 Jul ? 00:41:46 10° WSW 00:46:19 42° NW 00:51:00 10° NE visible
06 Jul ? 02:24:26 10° WNW 02:27:57 19° NNW 02:31:32 10° NNE visible
06 Jul ? 21:48:40 13° SE 21:50:28 16° ESE 21:53:23 10° ENE visible
06 Jul ? 23:26:12 15° SW 23:30:11 86° SE 23:35:06 10° NE visible
07 Jul ? 01:07:01 10° W 01:11:12 28° NNW 01:15:27 10° NNE visible
07 Jul ? 02:49:51 10° NW 02:53:08 18° N 02:56:27 10° NE visible
07 Jul ? 22:11:24 16° S 22:14:31 32° ESE 22:18:50 10° ENE visible
07 Jul ? 23:50:06 10° WSW 23:54:46 54° NW 23:59:36 10° NE visible
08 Jul ? 01:32:30 10° WNW 01:36:14 21° NNW 01:40:01 10° NNE visible
08 Jul ? 22:34:07 10° SSW 22:38:47 63° SE 22:43:38 10° NE visible
09 Jul ? 00:15:11 10° W 00:19:34 34° NNW 00:24:03 10° NNE visible
09 Jul ? 01:58:00 10° NW 02:01:23 18° N 02:04:47 10° NE visible
09 Jul ? 21:19:35 10° SSE 21:23:17 23° ESE 21:27:04 10° ENE visible
09 Jul ? 22:58:31 10° SW 23:03:16 71° NW 23:08:11 10° NE visible
10 Jul ? 00:40:36 10° WNW 00:44:32 24° NNW 00:48:33 10° NNE visible
10 Jul ? 02:23:17 10° NW 02:26:35 17° N 02:29:53 10° NE visible
10 Jul ? 21:42:56 10° SSW 21:47:26 45° ESE 21:52:05 10° NE visible
10 Jul ? 23:23:25 10° WSW 23:27:58 41° NW 23:32:39 10° NE visible
11 Jul ? 01:06:06 10° WNW 01:09:38 19° NNW 01:13:11 10° NNE visible
11 Jul ? 02:48:14 10° NNW 02:51:46 19° NNE 02:55:19 10° ENE visible
11 Jul ? 22:07:03 10° SW 22:11:49 88° SE 22:16:45 10° NE visible
11 Jul ? 23:48:42 10° W 23:52:51 28° NNW 23:57:06 10° NNE visible
12 Jul ? 01:31:31 10° NW 01:34:49 17° N 01:38:07 10° NE visible
12 Jul ? 20:51:56 10° S 20:56:09 33° ESE 21:00:29 10° NE visible
12 Jul ? 22:31:44 10° WSW 22:36:25 53° NW 22:41:14 10° NE visible
13 Jul ? 00:14:11 10° WNW 00:17:53 21° NNW 00:21:39 10° NNE visible
13 Jul ? 01:56:37 10° NW 02:00:00 18° N 02:03:24 10° NE visible
13 Jul ? 21:15:43 10° SSW 21:20:25 65° SE 21:25:17 10° NE visible
13 Jul ? 22:56:51 10° W 23:01:13 33° NNW 23:05:41 10° NNE visible
